AEHF-6 (USA 298) (45465 NORAD) Tracking and Keplerian Element Data

This shows tracking and keplerian element data for the satellite.

Feedback or suggestion? Click here.




ElementValue
Catalog45465
NameAEHF-6 (USA 298)
Epoch Orbit70
Epoch Day143.2847222
Epoch Year2020
RAAN315.7821
Inclination8.87
Eccentricity0.0814725
Argument of Perigee184.5438
Mean Anonmoly333.9225
Mean Motion1.1613965
Decay Rate-1.09E-06
L11 45465U 20022B 20143.28472220 -.00000109 00000-0 00000+0 0 9997
L22 45465 8.8700 315.7821 0814725 184.5438 333.9225 1.16139650 702

Live tracking and technical data element details for AEHF-6 (USA 298) (NORAD 45465). AEHF-6 (USA 298) can be tracked NOW for your location showing map with azimuth and elevation plus other details from your city location.

Track the satellite on the map from your city or location and see movement details for azimuth, elevation, latitude, longitude, range, height, and movement on the map or in text.







IsCatalogInMostPopularTable: catalog: 45465, numindb: 15
Update: records affected: 1



GetName: 45465 AEHF-6 (USA 298)

Hit Count: updated at: Tue, 26 May 2020 02:35:50 GMT